Home > Weather > Grand Rapids > Past weeks

Flag for U.S.A. Weather for the Past 2 Weeks in Grand Rapids, Michigan, U.S.A.

Now
27 °F

Clear.


Feels Like: 20 °F
Forecast: 27 / 37 °F
Wind: 7 mph from South

Location: Kent County International Airport

Current Time: Feb 8, 2016 at 5:32:04 AM

Latest Report: Feb 8, 2016 at 4:53 AM


Visibility: 10 mi

Pressure: 29.63 "Hg

Humidity: 92%

Dew point: 25 °F

Location of Grand RapidsLocation

Historic Weather in Grand Rapids — Graph

°F

Grand Rapids Temperature Yesterday

Maximum temperature yesterday: 45 °F (at 2:53 PM)
Minimum temperature yesterday: 31 °F (at 2:53 AM)
Average temperature yesterday: 38 °F

High & Low Weather Summary for the Past Weeks

 TemperatureHumidityPressure
High46 °F (Jan 31, 11:53 AM)100% (Jan 25, 8:53 PM)30.35 "Hg (Jan 25, 8:53 PM)
Low20 °F (Feb 6, 1:53 AM)53% (Jan 29, 12:53 PM)29.45 "Hg (Feb 3, 6:03 AM)
Average32 °F82%29.91 "Hg
* Reported Jan 24 3:53 AM — Feb 8 3:53 AM, Grand Rapids, Weather by CustomWeather, © 2016

Note: Actual official high and low records may vary slightly from our data, if they occured in-between our weather recording intervals... More about our weather records

Advertising

Grand Rapids Weather History for the Previous 24 Hours

 ConditionsComfort  
Time TempWeatherWind HumidityBarometerVisibility
3:53 AM
Mon, Feb 8
30 °FClear.6 mph89%29.62 "Hg10 mi
2:53 AM32 °FClear.8 mph85%29.65 "Hg10 mi
1:53 AM32 °FClear.7 mph88%29.66 "Hg10 mi
12:53 AM33 °FClear.6 mph85%29.67 "Hg10 mi
11:53 PM
Sun, Feb 7
36 °FPassing clouds.9 mph82%29.68 "Hg10 mi
10:53 PM39 °FOvercast.13 mph76%29.70 "Hg10 mi
9:53 PM39 °FOvercast.9 mph76%29.71 "Hg10 mi
8:53 PM40 °FOvercast.10 mph73%29.72 "Hg10 mi
7:53 PM40 °FMostly cloudy.10 mph73%29.73 "Hg10 mi
6:53 PM40 °FPartly cloudy.9 mph70%29.73 "Hg10 mi
5:53 PM42 °FMostly cloudy.10 mph65%29.73 "Hg10 mi
4:53 PM42 °FMore clouds than sun.15 mph62%29.73 "Hg10 mi
3:53 PM44 °FMostly cloudy.13 mph60%29.72 "Hg10 mi
2:53 PM45 °FPartly sunny.16 mph56%29.71 "Hg10 mi
1:53 PM44 °FBroken clouds.17 mph55%29.73 "Hg10 mi
12:53 PM44 °FPartly sunny.15 mph58%29.77 "Hg10 mi
11:53 AM42 °FMostly cloudy.10 mph62%29.80 "Hg10 mi
10:53 AM41 °FMostly cloudy.17 mph65%29.81 "Hg10 mi
9:53 AM39 °FPartly sunny.16 mph67%29.84 "Hg10 mi
8:53 AM36 °FPartly sunny.9 mph75%29.87 "Hg10 mi
7:53 AM35 °FPartly sunny.12 mph78%29.90 "Hg10 mi
6:53 AM34 °FPassing clouds.12 mph79%29.91 "Hg9 mi
5:53 AM34 °FOvercast.9 mph79%29.94 "Hg9 mi
Weather by CustomWeather, © 2016

See weather overviewHow to use our weather pages